Wind_Speed
26 33 40 42 45 48 48 49 52 47 43 42 43 43 41 38 37 34 31 28 26 23 21 22 20 20 20 23 23 23 23 24 25 24 21 21 19 21 24 26 26 27 27 25 26 26 24 21 22
27 27 30 39 42 43 51 49 53 55 51 48 45 45 44 45 43 39 38 32 29 25 25 25 21 20 22 26 29 28 27 28 24 21 20 21 21 24 28 27 26 26 26 26 25 23 22 21 22
30 29 28 28 34 41 43 52 52 54 58 56 54 47 49 45 44 42 40 35 34 30 28 28 28 26 24 24 24 25 25 24 22 19 22 24 27 29 28 24 24 26 25 24 24 22 21 22 19
31 32 30 29 28 31 39 45 51 57 58 63 59 58 49 50 49 45 42 39 36 32 32 32 32 31 31 28 24 24 26 24 25 25 28 31 30 30 24 24 26 27 22 22 20 19 18 18 17
26 28 33 31 30 31 31 35 41 49 60 61 63 61 58 55 54 51 46 41 39 37 34 36 34 35 34 30 23 25 23 26 26 31 31 30 26 23 22 28 28 26 22 17 14 14 15 15 16
27 28 28 32 35 34 33 35 36 40 46 56 65 65 64 60 59 55 52 47 45 44 42 38 39 36 38 37 33 32 28 28 28 28 26 22 21 24 26 28 26 22 15 11 10 11 14 14 15
30 30 31 29 29 33 39 38 40 43 45 46 52 62 65 65 61 59 58 55 54 51 45 40 39 36 37 38 37 36 31 27 24 24 21 23 23 25 27 26 22 15 10 9 10 11 13 14 16
34 32 33 34 32 31 29 36 44 47 48 48 48 49 55 67 66 64 62 59 57 59 53 48 42 40 40 41 40 40 36 30 26 21 20 20 24 25 25 21 19 13 9 10 11 12 18 13 18
38 34 35 37 36 33 31 40 42 46 51 51 50 47 49 54 60 62 59 62 60 59 59 53 49 42 43 44 41 41 43 34 33 26 26 22 24 24 22 19 16 13 12 12 15 15 25 16 20
40 38 36 36 37 38 37 39 43 46 46 53 53 50 51 51 53 54 56 55 59 60 59 59 54 53 50 48 44 40 44 42 35 35 34 29 27 26 21 19 20 16 18 21 19 20 20 19 19
39 39 38 39 41 40 39 39 42 44 46 45 46 52 54 50 51 52 54 54 54 55 57 57 56 53 51 54 49 47 47 44 40 44 42 36 29 28 24 22 23 20 25 28 20 22 21 22 21
41 41 41 42 44 41 40 37 38 41 43 46 46 51 51 51 52 52 54 54 54 55 56 56 56 55 52 52 56 54 53 53 47 49 47 43 33 30 29 28 25 24 28 29 22 23 22 24 24
43 44 45 46 45 46 43 42 38 37 41 48 52 52 52 53 55 56 55 57 56 55 56 57 54 54 52 50 51 54 56 56 54 52 58 39 35 34 34 31 27 26 29 25 24 23 26 25 26
45 45 46 47 47 47 47 46 43 38 39 43 50 54 55 53 53 56 56 56 58 58 57 56 56 55 53 53 53 55 57 59 47 49 45 39 35 38 36 32 31 30 28 27 25 26 27 27 28
47 47 46 46 48 49 52 50 49 45 42 44 45 51 56 58 56 54 56 58 56 59 59 56 55 57 56 52 55 60 62 61 54 46 42 39 40 40 39 37 34 35 35 32 27 29 31 30 29
50 49 50 43 51 50 55 50 50 51 51 51 48 47 49 56 54 56 58 58 58 58 59 59 58 58 62 58 55 56 59 57 48 48 46 45 44 44 45 41 40 38 36 34 33 34 35 32 31
52 53 54 48 54 52 56 51 50 54 50 52 54 52 49 48 53 57 58 58 59 60 59 64 62 62 57 61 60 59 59 59 55 53 54 51 49 48 51 51 48 44 41 40 41 38 35 35 36
50 54 53 54 51 57 58 55 57 58 59 54 53 55 55 56 55 53 57 59 60 61 62 61 70 67 68 56 59 60 62 62 61 59 56 51 46 48 54 50 44 44 42 43 45 40 41 41 40
52 54 55 53 52 57 60 59 60 60 60 60 58 58 61 62 61 58 56 55 58 59 60 64 64 73 70 69 63 63 64 64 63 60 56 54 50 50 52 50 48 49 47 43 42 42 45 48 41
55 56 58 56 56 57 58 59 60 61 61 61 63 64 67 65 63 62 62 61 60 59 59 60 66 67 70 77 74 69 63 64 61 62 59 60 58 55 56 52 53 53 51 50 45 46 50 47 45
59 60 62 60 60 64 65 66 67 66 66 68 69 69 67 68 71 71 70 69 67 64 62 60 61 64 70 71 78 72 68 70 67 70 67 67 64 59 59 58 54 49 47 50 50 51 52 51 47
64 63 67 66 67 68 68 71 74 69 71 71 71 72 72 71 72 73 73 72 71 71 69 67 64 64 61 63 69 73 76 67 72 71 72 69 68 68 66 63 61 58 54 53 54 54 55 53 51
67 68 70 72 72 73 74 75 86 74 75 73 79 77 75 75 74 73 74 76 77 76 75 73 70 68 67 65 55 49 66 68 67 79 76 71 74 72 71 68 69 63 62 59 54 57 57 53 54
62 63 65 67 68 69 72 74 79 79 79 79 82 82 81 79 77 77 77 77 77 78 80 80 79 77 73 65 66 60 41 64 63 74 71 74 79 80 77 73 64 60 61 60 60 59 57 53 52
55 56 59 60 63 64 67 67 76 72 73 75 76 79 82 85 82 84 82 80 80 82 82 84 84 84 82 81 78 81 84 74 70 77 79 79 73 71 72 80 67 66 66 66 65 59 59 55 53
59 61 63 63 67 73 68 72 80 71 78 78 77 78 77 79 80 84 87 87 86 86 87 87 87 88 88 88 87 85 88 93 95 89 85 83 85 78 78 76 71 66 64 61 61 59 60 58 53
56 61 61 65 66 69 71 82 80 76 80 82 84 85 84 84 83 85 85 85 87 88 88 90 91 92 92 93 94 94 91 91 93 94 93 91 89 90 84 83 72 68 68 69 67 65 64 66 62
59 60 63 66 66 71 71 76 88 78 78 85 87 87 88 89 90 91 92 93 94 93 93 93 92 93 94 96 97 98 99 97 95 93 92 91 87 97 96 86 76 75 73 76 65 65 68 73 72
64 66 66 69 71 73 74 79 88 84 78 84 85 85 88 91 93 94 96 96 97 99 101 101 102 101 99 99 101 102 102 102 102 98 94 92 90 90 99 88 87 84 82 81 79 75 76 77 76
66 67 70 71 72 72 75 74 80 73 71 70 70 70 73 75 79 82 86 90 94 99 103 105 107 109 109 108 106 105 105 105 105 105 101 96 94 90 95 101 95 88 84 86 84 85 82 83 80
Wind_Direction
220 219 218 219 221 223 223 225 226 223 221 222 223 225 224 223 223 226 221 230 233 235 239 247 246 248 259 261 259 255 264 274 285 290 283 283 279 297 300 300 298 301 303 307 307 307 309 313 314
222 222 221 222 227 226 226 226 227 230 228 226 226 224 230 225 228 230 230 227 230 233 240 240 247 251 256 255 258 265 271 279 279 278 270 263 270 291 296 297 297 298 301 306 306 306 309 314 316
224 224 221 222 225 229 227 228 229 231 233 231 231 224 230 224 222 221 225 224 227 233 239 245 249 252 259 264 257 259 266 265 268 266 260 269 272 289 295 292 294 297 300 305 306 310 316 319 322
226 227 227 222 222 227 231 233 233 233 234 235 237 232 227 235 231 223 221 221 229 235 244 246 248 252 257 266 253 249 256 264 256 259 257 269 272 284 286 289 295 299 300 305 308 315 320 326 322
231 226 227 227 229 229 226 232 237 240 238 237 238 236 238 236 238 231 224 222 232 239 241 247 250 252 254 255 254 257 265 263 253 254 263 265 276 282 286 288 289 293 296 300 307 319 325 320 317
237 234 230 226 229 230 233 235 239 241 242 243 241 238 237 241 239 235 230 231 238 241 242 247 252 253 253 253 254 258 260 254 243 249 261 267 277 276 279 286 284 288 289 296 311 324 315 311 314
240 239 237 231 226 230 231 234 239 244 247 246 245 243 241 241 242 237 236 237 241 247 245 249 251 249 246 249 255 253 262 260 230 246 259 256 273 276 287 287 279 276 273 294 304 320 304 315 309
243 240 239 238 233 233 232 237 237 239 243 247 248 245 244 244 243 243 240 239 242 245 246 249 249 246 248 248 255 252 249 252 241 262 267 269 272 281 285 277 270 264 281 292 297 325 320 304 311
245 241 241 241 239 238 239 245 242 241 240 242 246 248 249 248 247 247 248 243 247 249 248 249 247 247 248 245 250 248 253 250 247 262 263 260 266 275 277 264 253 265 287 286 296 317 324 301 309
241 246 248 245 242 240 240 252 252 249 246 243 242 245 249 251 250 249 249 249 248 249 251 252 250 248 250 247 248 250 248 253 254 254 260 263 269 263 257 241 252 262 297 298 294 314 316 290 302
242 244 249 250 247 246 248 256 253 253 251 250 250 248 248 248 253 250 248 248 249 249 249 253 254 251 250 248 251 247 249 254 256 261 267 261 260 255 244 245 251 273 302 299 283 310 298 296 298
247 247 249 250 251 250 246 253 255 250 250 250 248 247 246 246 249 249 249 248 248 250 251 251 253 253 252 249 251 255 258 257 259 261 265 266 256 242 240 241 245 287 292 286 282 304 294 288 297
245 251 252 252 252 251 247 248 248 251 249 246 247 248 247 243 244 246 248 248 247 247 251 251 252 255 255 254 254 254 255 257 259 264 273 258 253 247 244 241 245 275 285 273 275 291 290 283 290
248 248 251 254 251 250 247 248 249 248 253 254 251 251 252 252 248 248 247 250 250 248 247 251 252 252 252 254 251 250 248 256 253 255 259 258 264 249 242 244 250 262 272 268 274 282 280 279 285
248 250 251 250 254 252 250 251 249 251 254 256 255 253 253 255 252 250 250 249 249 250 250 247 249 251 254 251 249 245 253 254 252 255 254 254 260 261 247 248 250 258 265 258 266 280 275 279 279
248 250 251 247 254 254 253 254 252 255 257 257 259 259 256 254 258 254 252 251 250 249 249 249 243 246 253 252 254 251 246 245 245 241 247 258 259 255 258 257 252 250 259 261 268 278 279 277 274
253 254 255 251 256 254 255 253 257 260 258 257 259 259 260 261 256 256 256 252 251 250 249 243 245 243 246 251 250 250 249 247 246 243 243 251 252 253 257 258 255 250 259 267 274 278 274 274 274
256 259 256 254 256 256 256 254 253 254 255 254 255 257 258 257 260 259 258 256 253 253 251 246 242 241 243 242 249 248 249 248 247 251 249 248 248 254 248 249 250 256 267 269 271 274 274 275 277
256 259 257 256 255 256 257 257 256 254 254 255 257 258 258 258 259 259 259 258 257 254 252 253 246 245 242 248 243 248 245 248 251 252 250 250 251 250 240 248 254 259 265 268 267 268 273 275 271
257 258 259 257 257 257 255 256 256 255 256 257 258 256 256 257 259 260 261 260 258 256 252 253 253 249 245 247 256 262 256 250 248 248 248 246 249 246 250 250 252 256 262 262 262 267 270 273 268
259 259 259 257 257 259 258 257 256 256 256 255 256 256 255 256 257 258 259 260 259 259 257 251 250 252 251 249 249 255 262 265 257 252 251 247 248 249 252 252 254 259 260 261 259 267 264 268 262
259 260 261 260 259 258 260 262 256 256 257 257 258 258 257 256 256 258 258 258 259 259 258 257 251 248 250 251 252 254 259 255 257 260 260 255 250 252 252 250 249 250 250 259 260 263 263 260 261
259 260 260 261 261 261 261 260 264 257 257 261 260 258 258 259 258 257 256 257 256 255 255 254 252 250 246 247 251 273 266 265 257 247 248 256 248 247 248 250 250 248 256 262 257 258 256 257 269
260 260 261 261 262 262 261 262 264 262 261 256 259 259 258 257 257 257 257 256 255 255 256 255 252 250 245 241 238 226 235 256 248 240 244 249 250 246 246 245 243 247 250 249 247 251 255 260 258
260 260 260 260 261 260 260 261 261 265 262 260 259 258 257 257 257 258 256 255 255 256 255 255 255 253 249 245 240 234 235 237 245 244 234 239 240 241 242 243 244 246 253 249 252 253 254 260 258
261 261 261 262 262 264 258 258 260 261 262 264 262 260 260 259 258 259 257 255 254 254 254 254 253 253 251 248 245 242 239 238 240 242 244 238 237 239 239 237 241 242 246 251 251 251 254 259 259
265 266 266 265 266 266 272 268 260 259 261 261 261 261 261 260 260 259 259 258 257 256 253 253 252 252 251 250 248 245 243 243 243 245 245 243 244 235 236 239 240 241 244 248 249 253 254 261 259
271 270 270 269 269 270 269 271 272 263 266 266 265 264 264 262 260 259 258 258 258 258 258 256 254 252 252 250 249 248 246 245 244 244 245 245 242 235 236 238 236 238 244 248 246 248 253 253 257
272 273 273 272 272 272 271 272 271 270 266 267 265 265 265 265 265 263 262 261 259 258 257 256 256 255 253 251 250 249 246 245 244 244 244 243 244 241 236 234 234 234 238 243 241 242 248 249 257
277 278 277 277 277 275 274 273 272 275 274 271 270 268 267 265 264 263 263 262 261 260 258 258 257 255 254 254 252 250 249 247 245 244 243 243 242 242 239 236 234 233 241 239 243 246 250 247 253
Height
10933 10936 10939 10942 10946 10949 10952 10955 10956 10958 10960 10961 10963 10964 10965 10968 10970 10972 10973 10975 10977 10978 10980 10980 10981 10982 10983 10984 10985 10985 10986 10986 10986 10985 10985 10985 10985 10984 10983 10982 10981 10979 10977 10976 10974 10972 10969 10967 10964
10929 10932 10935 10939 10942 10945 10947 10950 10950 10952 10953 10954 10955 10956 10959 10962 10965 10968 10970 10972 10973 10974 10976 10977 10978 10979 10980 10980 10981 10982 10983 10983 10982 10982 10983 10982 10982 10982 10981 10979 10978 10976 10974 10973 10971 10970 10967 10964 10962
10924 10928 10932 10934 10937 10939 10941 10941 10945 10946 10945 10947 10949 10950 10954 10958 10959 10961 10964 10967 10968 10970 10971 10973 10974 10975 10976 10976 10976 10977 10977 10978 10978 10978 10979 10979 10979 10979 10978 10976 10975 10973 10972 10970 10969 10966 10964 10962 10960
10919 10923 10927 10930 10933 10934 10936 10936 10936 10937 10938 10938 10941 10946 10949 10952 10956 10956 10958 10961 10963 10965 10967 10968 10970 10971 10972 10973 10973 10973 10972 10973 10974 10974 10974 10974 10975 10975 10974 10973 10971 10970 10968 10967 10966 10964 10962 10961 10959
10914 10917 10921 10926 10928 10929 10931 10931 10930 10931 10930 10930 10933 10939 10943 10946 10948 10952 10954 10955 10956 10959 10962 10963 10965 10967 10968 10970 10970 10970 10969 10968 10968 10969 10970 10970 10970 10970 10970 10969 10967 10966 10965 10964 10963 10962 10960 10959 10957
10909 10911 10915 10918 10921 10923 10924 10925 10924 10923 10923 10923 10925 10930 10936 10937 10942 10945 10948 10951 10952 10954 10958 10960 10960 10962 10964 10966 10966 10967 10966 10963 10963 10964 10965 10966 10966 10966 10965 10965 10964 10962 10962 10962 10960 10959 10958 10957 10956
10904 10906 10909 10913 10915 10916 10918 10919 10917 10916 10915 10916 10917 10922 10927 10928 10933 10938 10941 10944 10947 10949 10951 10954 10955 10956 10957 10960 10962 10962 10962 10961 10959 10960 10960 10961 10961 10961 10961 10961 10960 10960 10959 10958 10958 10958 10957 10956 10954
10899 10901 10903 10905 10909 10911 10913 10910 10909 10907 10907 10908 10910 10915 10918 10918 10923 10928 10933 10936 10940 10942 10944 10947 10948 10949 10951 10953 10955 10957 10959 10958 10956 10956 10956 10956 10957 10957 10956 10957 10957 10956 10956 10956 10955 10955 10954 10953 10952
10892 10895 10896 10898 10902 10905 10904 10899 10900 10899 10901 10903 10904 10908 10909 10910 10915 10920 10925 10929 10932 10933 10935 10939 10942 10943 10944 10946 10948 10951 10953 10953 10952 10951 10950 10950 10951 10952 10951 10953 10953 10952 10953 10952 10952 10952 10951 10950 10949
10885 10887 10889 10892 10894 10896 10896 10894 10893 10893 10894 10896 10899 10904 10903 10905 10908 10913 10915 10919 10922 10925 10927 10930 10935 10937 10939 10939 10941 10944 10945 10946 10947 10945 10945 10945 10946 10946 10947 10948 10948 10947 10947 10947 10947 10948 10947 10946 10946
10879 10880 10882 10884 10886 10887 10889 10886 10885 10885 10887 10891 10895 10897 10895 10900 10897 10901 10904 10908 10910 10913 10917 10921 10924 10927 10929 10932 10934 10937 10939 10939 10939 10939 10939 10938 10940 10941 10940 10942 10942 10942 10942 10942 10942 10942 10941 10942 10941
10871 10873 10875 10876 10877 10878 10880 10878 10876 10877 10879 10882 10882 10880 10883 10888 10888 10889 10892 10896 10900 10903 10907 10911 10913 10917 10920 10923 10926 10929 10932 10934 10933 10933 10933 10933 10932 10933 10934 10935 10936 10936 10938 10936 10936 10936 10935 10936 10936
10863 10865 10866 10867 10867 10868 10869 10868 10868 10867 10869 10867 10870 10871 10873 10875 10878 10880 10883 10886 10889 10893 10895 10897 10902 10906 10909 10913 10916 10919 10923 10926 10927 10926 10927 10926 10924 10926 10926 10927 10928 10930 10931 10931 10931 10929 10931 10931 10930
10852 10854 10856 10857 10858 10857 10858 10858 10859 10862 10858 10861 10861 10863 10863 10867 10871 10872 10875 10878 10881 10883 10885 10887 10891 10895 10899 10903 10906 10908 10912 10916 10917 10919 10919 10919 10919 10918 10918 10918 10920 10922 10924 10925 10925 10925 10925 10925 10925
10842 10845 10846 10847 10848 10848 10848 10848 10851 10852 10853 10851 10854 10854 10856 10855 10861 10864 10865 10867 10869 10873 10877 10881 10882 10883 10886 10891 10895 10899 10901 10904 10908 10911 10912 10911 10912 10913 10912 10911 10912 10913 10915 10917 10917 10918 10917 10918 10918
10832 10834 10835 10841 10836 10839 10836 10839 10843 10841 10843 10842 10844 10845 10848 10846 10851 10853 10852 10856 10859 10862 10866 10869 10873 10876 10877 10879 10882 10886 10888 10891 10895 10899 10900 10903 10904 10904 10905 10904 10905 10904 10905 10907 10908 10910 10909 10909 10909
10821 10823 10823 10831 10826 10829 10826 10828 10834 10830 10832 10833 10833 10834 10837 10840 10839 10838 10839 10845 10848 10851 10854 10857 10860 10865 10866 10868 10871 10874 10877 10879 10882 10886 10888 10891 10894 10894 10894 10895 10896 10895 10897 10898 10899 10900 10900 10899 10900
10813 10807 10812 10813 10819 10814 10814 10815 10819 10820 10820 10822 10822 10823 10827 10826 10827 10829 10830 10831 10835 10838 10840 10845 10848 10853 10855 10858 10860 10863 10865 10867 10869 10874 10878 10881 10884 10884 10886 10886 10887 10888 10889 10889 10890 10890 10890 10890 10890
10798 10797 10799 10801 10807 10800 10801 10803 10804 10806 10809 10808 10810 10811 10812 10814 10814 10816 10818 10820 10821 10824 10827 10830 10837 10840 10844 10845 10848 10851 10852 10855 10859 10862 10867 10870 10874 10874 10874 10875 10875 10877 10879 10880 10879 10879 10879 10881 10880
10786 10786 10785 10793 10791 10787 10789 10789 10790 10792 10794 10796 10798 10799 10799 10799 10799 10801 10803 10806 10807 10809 10814 10818 10822 10826 10831 10834 10835 10837 10841 10845 10846 10849 10853 10856 10859 10863 10864 10865 10864 10865 10866 10867 10869 10869 10869 10870 10870
10772 10773 10772 10776 10778 10773 10773 10775 10774 10777 10779 10780 10781 10783 10784 10785 10786 10787 10789 10790 10792 10794 10798 10804 10807 10810 10816 10820 10826 10830 10831 10831 10834 10836 10837 10839 10845 10849 10850 10850 10852 10852 10854 10854 10855 10856 10857 10858 10859
10757 10760 10756 10759 10759 10759 10761 10755 10756 10764 10763 10765 10765 10765 10767 10770 10771 10772 10772 10774 10776 10777 10781 10785 10791 10794 10799 10805 10813 10819 10820 10823 10821 10820 10823 10826 10831 10834 10835 10836 10839 10839 10840 10842 10842 10844 10843 10844 10845
10741 10743 10742 10742 10743 10742 10744 10743 10719 10747 10747 10753 10742 10746 10750 10751 10753 10754 10755 10755 10756 10758 10761 10765 10772 10777 10784 10791 10803 10814 10808 10808 10807 10806 10807 10809 10811 10814 10818 10820 10824 10827 10827 10830 10830 10829 10829 10830 10833
10725 10726 10726 10725 10724 10726 10721 10724 10708 10721 10725 10729 10724 10725 10728 10732 10735 10735 10734 10736 10738 10739 10740 10744 10749 10755 10764 10773 10785 10784 10794 10778 10778 10783 10789 10793 10794 10796 10799 10802 10805 10809 10810 10811 10813 10810 10814 10815 10817
10711 10711 10710 10711 10708 10707 10707 10708 10686 10702 10704 10703 10704 10703 10706 10708 10715 10709 10715 10716 10717 10718 10721 10722 10724 10731 10739 10748 10756 10762 10763 10754 10756 10758 10767 10769 10774 10776 10779 10780 10784 10789 10793 10794 10796 10797 10799 10799 10802
10694 10695 10695 10695 10690 10681 10695 10688 10673 10691 10677 10680 10682 10682 10686 10686 10691 10686 10690 10693 10696 10697 10698 10700 10702 10705 10710 10719 10726 10733 10735 10736 10735 10736 10741 10747 10753 10753 10758 10758 10764 10770 10772 10776 10778 10782 10784 10786 10787
10682 10675 10678 10675 10675 10670 10667 10653 10662 10669 10665 10662 10659 10659 10663 10664 10667 10665 10666 10667 10668 10669 10672 10674 10677 10680 10683 10689 10695 10702 10707 10710 10713 10714 10719 10723 10729 10732 10736 10738 10745 10752 10753 10756 10760 10764 10769 10769 10771
10661 10661 10659 10656 10658 10651 10653 10643 10625 10649 10646 10637 10637 10637 10637 10637 10640 10641 10642 10643 10643 10644 10644 10647 10650 10654 10657 10660 10664 10670 10677 10683 10686 10689 10695 10702 10707 10711 10714 10719 10724 10730 10735 10739 10740 10743 10749 10752 10752
10646 10643 10642 10638 10635 10632 10632 10622 10605 10618 10625 10616 10616 10614 10612 10612 10612 10613 10614 10615 10616 10616 10617 10619 10621 10623 10626 10629 10632 10637 10644 10651 10657 10663 10670 10674 10682 10689 10696 10699 10703 10707 10711 10714 10717 10721 10727 10732 10735
10627 10625 10620 10616 10612 10612 10605 10602 10589 10597 10594 10593 10592 10591 10588 10587 10586 10585 10585 10586 10587 10587 10589 10590 10591 10592 10594 10598 10603 10607 10612 10618 10625 10634 10643 10648 10655 10663 10670 10678 10683 10687 10691 10695 10698 10702 10708 10712 10717